EXS79NX EGBB-LGKR

Flight info

Callsign EXS79NX
Flight time 2h 51m
Altitude 37000
Route ADMEX Y321 EMKUK UL612 COWLY Q70 BIG UL9 KONAN UL607 SPI DCT ARCKY DCT LIRSU DCT ULNOK DCT VIBOM DCT NOMBO DCT RIDAR DCT RADIZ DCT MODRO DCT DARZA DCT UNIPA DCT NERRA DCT VAKSU DCT RODON DCT LIMJA N732 PITAS
Aircraft B738/M-SDE2E3FGHIRWXY/LB1

Departure

Time 2026-04-27 11:58
Airport Birmingham Airport (EGBB)

Arrival

Time 2026-04-27 14:49
Airport Corfu Ioannis Kapodistrias International Airport (LGKR)
Time Latitude Longitude Altitude Speed Heading
2026-04-27 11:40 52.45004 -1.73578 320 ft 0 kts 56°
2026-04-27 11:52 52.45003 -1.73580 320 ft 2 kts 56°
2026-04-27 11:52 52.44990 -1.73612 304 ft 2 kts 56°
2026-04-27 11:52 52.44979 -1.73645 319 ft 4 kts 81°
2026-04-27 11:52 52.44983 -1.73683 320 ft 4 kts 132°
2026-04-27 11:53 52.44992 -1.73698 321 ft 0 kts 146°
2026-04-27 11:54 52.44983 -1.73687 322 ft 6 kts 146°
2026-04-27 11:55 52.44927 -1.73639 322 ft 11 kts 173°
2026-04-27 11:55 52.44846 -1.73671 322 ft 13 kts 198°
2026-04-27 11:55 52.44756 -1.73719 321 ft 15 kts 200°
2026-04-27 11:55 52.44654 -1.73664 322 ft 18 kts 146°
2026-04-27 11:56 52.44542 -1.73541 322 ft 19 kts 146°
2026-04-27 11:56 52.44438 -1.73426 322 ft 15 kts 146°
2026-04-27 11:56 52.44376 -1.73421 322 ft 14 kts 217°
2026-04-27 11:56 52.44323 -1.73603 323 ft 14 kts 289°
2026-04-27 11:57 52.44398 -1.73705 322 ft 18 kts 326°
2026-04-27 11:57 52.44667 -1.74002 326 ft 78 kts 326°
2026-04-27 11:57 52.45280 -1.74683 324 ft 133 kts 326°
2026-04-27 11:57 52.46156 -1.75668 495 ft 161 kts 326°
2026-04-27 11:58 52.47064 -1.76689 1310 ft 159 kts 327°
2026-04-27 11:58 52.48011 -1.77749 1966 ft 165 kts 326°
2026-04-27 11:58 52.48990 -1.78840 2501 ft 183 kts 327°
2026-04-27 11:58 52.50222 -1.79689 2803 ft 204 kts 349°
2026-04-27 11:59 52.51689 -1.79637 3213 ft 215 kts 12°
2026-04-27 11:59 52.53020 -1.78550 3856 ft 223 kts 39°
2026-04-27 11:59 52.53890 -1.76456 4597 ft 228 kts 69°
2026-04-27 11:59 52.53985 -1.73844 5293 ft 233 kts 104°
2026-04-27 12:00 52.53153 -1.71569 5653 ft 235 kts 144°
2026-04-27 12:00 52.51658 -1.70675 5894 ft 235 kts 177°
2026-04-27 12:00 52.49987 -1.70450 5476 ft 244 kts 177°
2026-04-27 12:00 52.48274 -1.70011 5094 ft 255 kts 160°
2026-04-27 12:01 52.46721 -1.68555 5556 ft 259 kts 145°
2026-04-27 12:01 52.45318 -1.67004 6799 ft 236 kts 155°
2026-04-27 12:01 52.43768 -1.65963 7220 ft 251 kts 162°
2026-04-27 12:01 52.42052 -1.64914 7452 ft 275 kts 161°
2026-04-27 12:02 52.40220 -1.63771 7952 ft 286 kts 160°
2026-04-27 12:02 52.38366 -1.62585 8625 ft 291 kts 160°
2026-04-27 12:02 52.37094 -1.61757 9167 ft 291 kts 160°
2026-04-27 12:02 52.34583 -1.60103 10095 ft 297 kts 160°
2026-04-27 12:03 52.32652 -1.58817 10670 ft 305 kts 160°
2026-04-27 12:03 52.30611 -1.57454 10808 ft 328 kts 160°
2026-04-27 12:03 52.29155 -1.56480 10931 ft 342 kts 159°
2026-04-27 12:03 52.27665 -1.55480 11038 ft 355 kts 159°
2026-04-27 12:04 52.24535 -1.53376 11382 ft 376 kts 159°
2026-04-27 12:04 52.22888 -1.52266 11734 ft 380 kts 159°
2026-04-27 12:04 52.18803 -1.49514 12839 ft 385 kts 159°
2026-04-27 12:04 52.17157 -1.48407 13266 ft 388 kts 159°
2026-04-27 12:05 52.13798 -1.46152 14224 ft 391 kts 159°
2026-04-27 12:05 52.12125 -1.45030 14637 ft 394 kts 159°
2026-04-27 12:05 52.09573 -1.43322 15212 ft 399 kts 159°
2026-04-27 12:05 52.06147 -1.41033 16030 ft 404 kts 159°
2026-04-27 12:06 52.03532 -1.39287 16624 ft 408 kts 158°
2026-04-27 12:06 52.02645 -1.38695 16838 ft 409 kts 158°
2026-04-27 12:06 51.98241 -1.35762 17862 ft 415 kts 158°
2026-04-27 12:06 51.96481 -1.34514 18242 ft 418 kts 156°
2026-04-27 12:07 51.92962 -1.31740 18957 ft 423 kts 154°
2026-04-27 12:07 51.90318 -1.29565 19440 ft 428 kts 153°
2026-04-27 12:07 51.87652 -1.27370 19923 ft 432 kts 153°
2026-04-27 12:07 51.84956 -1.25167 20409 ft 435 kts 153°
2026-04-27 12:08 51.82237 -1.22967 20883 ft 439 kts 153°
2026-04-27 12:08 51.79487 -1.20758 21341 ft 443 kts 153°
2026-04-27 12:08 51.76729 -1.18550 21958 ft 442 kts 153°
2026-04-27 12:08 51.73962 -1.16340 22412 ft 446 kts 153°
2026-04-27 12:09 51.71160 -1.14105 22802 ft 451 kts 153°
2026-04-27 12:09 51.68371 -1.11883 23217 ft 455 kts 153°
2026-04-27 12:09 51.65527 -1.09598 23669 ft 458 kts 151°
2026-04-27 12:09 51.62911 -1.06654 24030 ft 460 kts 135°
2026-04-27 12:10 51.60825 -1.02772 24434 ft 459 kts 122°
2026-04-27 12:10 51.59337 -0.98257 24828 ft 457 kts 109°
2026-04-27 12:10 51.58587 -0.95085 25102 ft 458 kts 109°
2026-04-27 12:10 51.57438 -0.90203 25324 ft 464 kts 110°
2026-04-27 12:11 51.55853 -0.83792 25797 ft 466 kts 111°
2026-04-27 12:11 51.54622 -0.78966 26200 ft 467 kts 111°
2026-04-27 12:11 51.53374 -0.74125 26527 ft 470 kts 112°
2026-04-27 12:11 51.52116 -0.69262 26826 ft 473 kts 112°
2026-04-27 12:12 51.50847 -0.64358 27139 ft 476 kts 112°
2026-04-27 12:12 51.49574 -0.59438 27456 ft 478 kts 112°
2026-04-27 12:12 51.48300 -0.54516 27765 ft 480 kts 112°
2026-04-27 12:12 51.47014 -0.49551 28071 ft 482 kts 112°
2026-04-27 12:13 51.45723 -0.44578 28364 ft 484 kts 112°
2026-04-27 12:13 51.44440 -0.39644 28662 ft 486 kts 112°
2026-04-27 12:13 51.43119 -0.34577 29078 ft 485 kts 112°
2026-04-27 12:13 51.41819 -0.29601 29556 ft 483 kts 112°
2026-04-27 12:14 51.40521 -0.24644 30002 ft 482 kts 112°
2026-04-27 12:14 51.39240 -0.19764 30374 ft 482 kts 112°
2026-04-27 12:14 51.37942 -0.14826 30672 ft 482 kts 112°
2026-04-27 12:14 51.36640 -0.09883 31011 ft 481 kts 112°
2026-04-27 12:15 51.35338 -0.04950 31373 ft 480 kts 112°
2026-04-27 12:15 51.34035 -0.00025 31696 ft 479 kts 113°
2026-04-27 12:15 51.32932 0.04612 31814 ft 485 kts 108°
2026-04-27 12:15 51.32171 0.09916 31921 ft 491 kts 101°
2026-04-27 12:16 51.31565 0.15282 32266 ft 489 kts 101°
2026-04-27 12:16 51.31170 0.18815 32551 ft 487 kts 101°
2026-04-27 12:16 51.30557 0.24069 32985 ft 484 kts 102°
2026-04-27 12:16 51.29692 0.31063 33402 ft 484 kts 102°
2026-04-27 12:17 51.29033 0.36331 33669 ft 484 kts 102°
2026-04-27 12:17 51.28389 0.41614 33971 ft 484 kts 102°
2026-04-27 12:17 51.27967 0.45115 34196 ft 483 kts 102°
2026-04-27 12:17 51.27332 0.50374 34471 ft 483 kts 102°
2026-04-27 12:18 51.26687 0.55667 34519 ft 488 kts 102°
2026-04-27 12:18 51.26021 0.61010 34659 ft 490 kts 103°
2026-04-27 12:18 51.25322 0.66312 34971 ft 488 kts 103°
2026-04-27 12:18 51.24612 0.71605 35290 ft 485 kts 103°
2026-04-27 12:19 51.23923 0.76902 35313 ft 490 kts 102°
2026-04-27 12:19 51.22368 0.89338 35443 ft 492 kts 102°
2026-04-27 12:19 51.21917 0.92941 35632 ft 490 kts 102°
2026-04-27 12:20 51.21242 0.98260 35933 ft 488 kts 103°
2026-04-27 12:20 51.20373 1.05027 36241 ft 487 kts 103°
2026-04-27 12:20 51.19907 1.08594 36424 ft 486 kts 103°
2026-04-27 12:20 51.19215 1.13857 36679 ft 484 kts 103°
2026-04-27 12:21 51.18521 1.19121 36904 ft 484 kts 103°
2026-04-27 12:21 51.17827 1.24375 37112 ft 484 kts 103°
2026-04-27 12:21 51.17143 1.29552 37291 ft 484 kts 103°
2026-04-27 12:22 51.15951 1.40161 37292 ft 487 kts 96°
2026-04-27 12:22 51.15467 1.50894 37299 ft 484 kts 94°
2026-04-27 12:23 51.15040 1.61590 37294 ft 483 kts 95°
2026-04-27 12:23 51.14535 1.72246 37287 ft 482 kts 95°
2026-04-27 12:24 51.13990 1.82888 37284 ft 482 kts 95°
2026-04-27 12:24 51.13442 1.93471 37276 ft 482 kts 95°
2026-04-27 12:25 51.12896 2.03880 37272 ft 483 kts 95°
2026-04-27 12:25 51.12327 2.14549 37280 ft 484 kts 96°
2026-04-27 12:26 51.11747 2.25245 37287 ft 485 kts 96°
2026-04-27 12:26 51.11157 2.35969 37279 ft 487 kts 96°
2026-04-27 12:27 51.10557 2.46712 37278 ft 488 kts 96°
2026-04-27 12:27 51.09950 2.57408 37284 ft 489 kts 96°
2026-04-27 12:28 51.09110 2.68140 37265 ft 489 kts 105°
2026-04-27 12:28 51.07233 2.78513 37277 ft 488 kts 109°
2026-04-27 12:29 51.05251 2.88834 37270 ft 488 kts 108°
2026-04-27 12:29 51.03316 2.99198 37268 ft 489 kts 108°
2026-04-27 12:30 51.01473 3.09227 37264 ft 489 kts 108°
2026-04-27 12:30 50.99577 3.19519 37260 ft 488 kts 108°
2026-04-27 12:31 50.97659 3.29858 37255 ft 488 kts 108°
2026-04-27 12:31 50.95731 3.40178 37249 ft 487 kts 108°
2026-04-27 12:32 50.93809 3.50416 37252 ft 487 kts 108°
2026-04-27 12:32 50.91868 3.60702 37246 ft 486 kts 108°
2026-04-27 12:33 50.89909 3.70959 37250 ft 486 kts 108°
2026-04-27 12:33 50.87925 3.81183 37257 ft 486 kts 109°
2026-04-27 12:34 50.85933 3.91402 37251 ft 486 kts 109°
2026-04-27 12:34 50.83981 4.01384 37256 ft 486 kts 109°
2026-04-27 12:35 50.81974 4.11596 37263 ft 486 kts 109°
2026-04-27 12:35 50.79958 4.21804 37241 ft 486 kts 109°
2026-04-27 12:36 50.77935 4.31991 37260 ft 486 kts 109°
2026-04-27 12:36 50.75915 4.42108 37267 ft 486 kts 109°
2026-04-27 12:37 50.73872 4.52299 37264 ft 486 kts 109°
2026-04-27 12:37 50.71825 4.62475 37264 ft 487 kts 109°
2026-04-27 12:38 50.69842 4.72685 37261 ft 487 kts 108°
2026-04-27 12:38 50.67862 4.82920 37256 ft 487 kts 108°
2026-04-27 12:39 50.65859 4.93128 37251 ft 487 kts 109°
2026-04-27 12:39 50.63849 5.03005 37254 ft 487 kts 109°
2026-04-27 12:40 50.61753 5.13150 37251 ft 487 kts 109°
2026-04-27 12:40 50.59654 5.23304 37250 ft 487 kts 109°
2026-04-27 12:41 50.57551 5.33458 37253 ft 487 kts 109°
2026-04-27 12:41 50.55442 5.43595 37251 ft 487 kts 109°
2026-04-27 12:42 50.53321 5.53739 37247 ft 487 kts 109°
2026-04-27 12:42 50.50962 5.63706 37212 ft 485 kts 120°
2026-04-27 12:43 50.47358 5.72508 37230 ft 482 kts 127°
2026-04-27 12:43 50.43571 5.81200 37219 ft 483 kts 127°
2026-04-27 12:44 50.39825 5.89944 37232 ft 483 kts 126°
2026-04-27 12:44 50.36093 5.98715 37214 ft 484 kts 126°
2026-04-27 12:45 50.32442 6.07270 37205 ft 484 kts 126°
2026-04-27 12:45 50.28766 6.16106 37206 ft 485 kts 122°
2026-04-27 12:46 50.25564 6.25411 37219 ft 486 kts 119°
2026-04-27 12:46 50.22398 6.34759 37203 ft 486 kts 120°
2026-04-27 12:47 50.19205 6.44006 37178 ft 487 kts 116°
2026-04-27 12:47 50.17116 6.54063 37206 ft 489 kts 105°
2026-04-27 12:48 50.15507 6.64381 37203 ft 489 kts 104°
2026-04-27 12:48 50.13870 6.74699 37187 ft 489 kts 105°
2026-04-27 12:49 50.12206 6.84840 37208 ft 490 kts 105°
2026-04-27 12:49 50.10493 6.95105 37212 ft 489 kts 105°
2026-04-27 12:50 50.08822 7.05058 37213 ft 490 kts 105°
2026-04-27 12:50 50.07090 7.15318 37209 ft 490 kts 106°
2026-04-27 12:51 50.05350 7.25581 37213 ft 490 kts 105°
2026-04-27 12:51 50.03901 7.34077 37215 ft 490 kts 106°
2026-04-27 12:52 50.01848 7.46044 37215 ft 490 kts 106°
2026-04-27 12:52 50.00081 7.56281 37226 ft 490 kts 106°
2026-04-27 12:53 49.97420 7.71587 37215 ft 490 kts 106°
2026-04-27 12:53 49.95634 7.81785 37210 ft 490 kts 106°
2026-04-27 12:54 49.93837 7.91987 37197 ft 490 kts 106°
2026-04-27 12:54 49.92073 8.01947 37224 ft 490 kts 106°
2026-04-27 12:55 49.90270 8.12071 37210 ft 490 kts 106°
2026-04-27 12:55 49.88443 8.22272 37223 ft 491 kts 106°
2026-04-27 12:56 49.86610 8.32459 37218 ft 491 kts 106°
2026-04-27 12:56 49.84302 8.42373 37214 ft 488 kts 120°
2026-04-27 12:57 49.80432 8.50927 37227 ft 484 kts 132°
2026-04-27 12:57 49.76159 8.58999 37210 ft 485 kts 132°
2026-04-27 12:58 49.71906 8.67104 37211 ft 486 kts 131°
2026-04-27 12:58 49.67669 8.75266 37207 ft 487 kts 131°
2026-04-27 12:59 49.63454 8.83389 37215 ft 487 kts 131°
2026-04-27 12:59 49.59214 8.91529 37199 ft 487 kts 131°
2026-04-27 13:00 49.54958 8.99671 37215 ft 487 kts 131°
2026-04-27 13:00 49.50796 9.07609 37201 ft 487 kts 131°
2026-04-27 13:01 49.46543 9.15739 37199 ft 489 kts 129°
2026-04-27 13:01 49.42733 9.24409 37200 ft 489 kts 125°
2026-04-27 13:02 49.39066 9.33208 37206 ft 489 kts 124°
2026-04-27 13:02 49.35366 9.41980 37187 ft 489 kts 125°
2026-04-27 13:03 49.31638 9.50691 37207 ft 488 kts 125°
2026-04-27 13:03 49.27926 9.59309 37199 ft 488 kts 125°
2026-04-27 13:04 49.24183 9.67974 37204 ft 487 kts 125°
2026-04-27 13:04 49.20439 9.76619 37218 ft 487 kts 125°
2026-04-27 13:05 49.16691 9.85246 37213 ft 487 kts 125°
2026-04-27 13:05 49.12933 9.93869 37212 ft 487 kts 125°
2026-04-27 13:06 49.09251 10.02295 37216 ft 488 kts 125°
2026-04-27 13:06 49.05301 10.10694 37201 ft 485 kts 135°
2026-04-27 13:07 49.00567 10.17898 37211 ft 484 kts 138°
2026-04-27 13:07 48.96524 10.23871 37216 ft 484 kts 138°
2026-04-27 13:08 48.91745 10.31010 37221 ft 485 kts 137°
2026-04-27 13:08 48.86950 10.38232 37225 ft 486 kts 137°
2026-04-27 13:09 48.82148 10.45463 37212 ft 486 kts 137°
2026-04-27 13:09 48.77337 10.52684 37218 ft 486 kts 137°
2026-04-27 13:10 48.72512 10.59900 37208 ft 487 kts 137°
2026-04-27 13:10 48.67678 10.67109 37211 ft 487 kts 137°
2026-04-27 13:11 48.62847 10.74295 37208 ft 487 kts 137°
2026-04-27 13:11 48.58066 10.81486 37195 ft 488 kts 133°
2026-04-27 13:12 48.53719 10.89377 37204 ft 489 kts 129°
2026-04-27 13:12 48.49498 10.97425 37185 ft 489 kts 129°
2026-04-27 13:13 48.45346 11.05236 37184 ft 488 kts 130°
2026-04-27 13:13 48.41061 11.13167 37186 ft 488 kts 130°
2026-04-27 13:14 48.36758 11.21072 37187 ft 488 kts 130°
2026-04-27 13:14 48.32453 11.28959 37189 ft 487 kts 130°
2026-04-27 13:15 48.28148 11.36826 37185 ft 487 kts 130°
2026-04-27 13:15 48.23867 11.44627 37183 ft 487 kts 130°
2026-04-27 13:16 48.19557 11.52461 37186 ft 487 kts 130°
2026-04-27 13:16 48.15238 11.60286 37192 ft 487 kts 130°
2026-04-27 13:17 48.10912 11.68104 37171 ft 488 kts 130°
2026-04-27 13:17 48.06575 11.75917 37178 ft 488 kts 130°
2026-04-27 13:18 48.02237 11.83709 37167 ft 488 kts 130°
2026-04-27 13:18 47.97904 11.91472 37166 ft 488 kts 130°
2026-04-27 13:19 47.93557 11.99236 37169 ft 488 kts 129°
2026-04-27 13:19 47.89293 12.06830 37162 ft 488 kts 130°
2026-04-27 13:20 47.84935 12.14570 37163 ft 487 kts 130°
2026-04-27 13:20 47.80594 12.22257 37159 ft 487 kts 130°
2026-04-27 13:21 47.76230 12.29964 37157 ft 487 kts 130°
2026-04-27 13:21 47.71865 12.37662 37139 ft 485 kts 130°
2026-04-27 13:22 47.67507 12.45308 37149 ft 485 kts 130°
2026-04-27 13:22 47.63165 12.52887 37158 ft 485 kts 131°
2026-04-27 13:23 47.58160 12.59603 37157 ft 485 kts 141°
2026-04-27 13:23 47.52869 12.65828 37153 ft 486 kts 142°
2026-04-27 13:24 47.47587 12.72066 37153 ft 486 kts 141°
2026-04-27 13:24 47.42326 12.78358 37147 ft 486 kts 141°
2026-04-27 13:25 47.37078 12.84659 37145 ft 486 kts 141°
2026-04-27 13:25 47.31835 12.90942 37135 ft 486 kts 141°
2026-04-27 13:26 47.26625 12.97164 37131 ft 485 kts 141°
2026-04-27 13:26 47.21495 13.03272 37130 ft 484 kts 141°
2026-04-27 13:27 47.16268 13.09479 37137 ft 481 kts 141°
2026-04-27 13:27 47.11052 13.15658 37134 ft 481 kts 141°
2026-04-27 13:28 47.05842 13.21813 37114 ft 480 kts 141°
2026-04-27 13:28 47.00669 13.27903 37124 ft 479 kts 141°
2026-04-27 13:29 46.95490 13.33994 37132 ft 478 kts 141°
2026-04-27 13:29 46.90303 13.40073 37113 ft 477 kts 141°
2026-04-27 13:30 46.85124 13.46132 37112 ft 476 kts 141°
2026-04-27 13:30 46.79954 13.52164 37123 ft 476 kts 141°
2026-04-27 13:31 46.74759 13.58207 37121 ft 478 kts 141°
2026-04-27 13:31 46.69585 13.64212 37109 ft 479 kts 141°
2026-04-27 13:32 46.64353 13.70268 37114 ft 481 kts 141°
2026-04-27 13:32 46.59101 13.76333 37127 ft 481 kts 142°
2026-04-27 13:33 46.53861 13.82366 37114 ft 481 kts 142°
2026-04-27 13:33 46.48643 13.88362 37124 ft 480 kts 141°
2026-04-27 13:34 46.43401 13.94371 37131 ft 479 kts 141°
2026-04-27 13:34 46.38353 14.00139 37129 ft 479 kts 142°
2026-04-27 13:35 46.33142 14.06080 37121 ft 479 kts 142°
2026-04-27 13:35 46.27912 14.12030 37139 ft 478 kts 142°
2026-04-27 13:36 46.22673 14.17974 37132 ft 478 kts 142°
2026-04-27 13:36 46.17467 14.23866 37136 ft 478 kts 142°
2026-04-27 13:37 46.12231 14.29780 37138 ft 478 kts 142°
2026-04-27 13:37 46.06993 14.35681 37121 ft 478 kts 142°
2026-04-27 13:38 46.01776 14.41595 37137 ft 477 kts 141°
2026-04-27 13:38 45.96779 14.47315 37140 ft 478 kts 141°
2026-04-27 13:39 45.91560 14.53236 37144 ft 478 kts 142°
2026-04-27 13:39 45.86291 14.59080 37128 ft 479 kts 142°
2026-04-27 13:40 45.81480 14.64397 37149 ft 478 kts 142°
2026-04-27 13:40 45.76211 14.70223 37140 ft 479 kts 142°
2026-04-27 13:41 45.70924 14.76064 37146 ft 479 kts 142°
2026-04-27 13:41 45.65648 14.81884 37142 ft 480 kts 142°
2026-04-27 13:42 45.61202 14.86777 37143 ft 480 kts 142°
2026-04-27 13:42 45.55061 14.93517 37134 ft 479 kts 142°
2026-04-27 13:43 45.49772 14.99307 37142 ft 479 kts 142°
2026-04-27 13:43 45.44612 15.04941 37144 ft 479 kts 142°
2026-04-27 13:44 45.39319 15.10708 37146 ft 478 kts 142°
2026-04-27 13:44 45.34029 15.16456 37136 ft 478 kts 142°
2026-04-27 13:45 45.28739 15.22192 37147 ft 478 kts 142°
2026-04-27 13:45 45.23444 15.27919 37147 ft 478 kts 142°
2026-04-27 13:46 45.18332 15.33435 37145 ft 478 kts 142°
2026-04-27 13:46 45.13023 15.39150 37145 ft 478 kts 142°
2026-04-27 13:47 45.07725 15.44840 37136 ft 478 kts 142°
2026-04-27 13:47 45.02421 15.50522 37148 ft 478 kts 142°
2026-04-27 13:48 44.97124 15.56183 37130 ft 478 kts 142°
2026-04-27 13:48 44.91842 15.61815 37127 ft 478 kts 142°
2026-04-27 13:49 44.86532 15.67464 37126 ft 478 kts 142°
2026-04-27 13:49 44.81222 15.73099 37129 ft 478 kts 143°
2026-04-27 13:50 44.75908 15.78725 37121 ft 477 kts 142°
2026-04-27 13:50 44.70598 15.84333 37123 ft 477 kts 143°
2026-04-27 13:51 44.65293 15.89923 37100 ft 476 kts 143°
2026-04-27 13:51 44.59990 15.95499 37107 ft 476 kts 143°
2026-04-27 13:52 44.54829 16.00912 37116 ft 476 kts 143°
2026-04-27 13:52 44.49527 16.06461 37107 ft 475 kts 143°
2026-04-27 13:53 44.42462 16.13834 37086 ft 476 kts 143°
2026-04-27 13:54 44.36249 16.20299 37092 ft 476 kts 143°
2026-04-27 13:54 44.30941 16.25809 37107 ft 476 kts 143°
2026-04-27 13:55 44.25703 16.31233 37084 ft 476 kts 143°
2026-04-27 13:55 44.20377 16.36736 37083 ft 477 kts 143°
2026-04-27 13:56 44.15046 16.42232 37077 ft 477 kts 143°
2026-04-27 13:56 44.09713 16.47717 37085 ft 477 kts 143°
2026-04-27 13:57 44.05265 16.52282 37087 ft 477 kts 143°
2026-04-27 13:57 43.99922 16.57755 37078 ft 478 kts 143°
2026-04-27 13:58 43.94562 16.63231 37080 ft 477 kts 143°
2026-04-27 13:58 43.89208 16.68690 37075 ft 478 kts 143°
2026-04-27 13:59 43.83849 16.74141 37080 ft 478 kts 143°
2026-04-27 13:59 43.78521 16.79548 37094 ft 478 kts 144°
2026-04-27 14:00 43.73152 16.84986 37079 ft 478 kts 144°
2026-04-27 14:00 43.67780 16.90413 37093 ft 478 kts 144°
2026-04-27 14:01 43.62401 16.95834 37097 ft 478 kts 144°
2026-04-27 14:01 43.57145 17.01120 37104 ft 478 kts 144°
2026-04-27 14:02 43.51797 17.06487 37114 ft 478 kts 144°
2026-04-27 14:02 43.46410 17.11881 37096 ft 478 kts 144°
2026-04-27 14:03 43.41020 17.17265 37102 ft 478 kts 144°
2026-04-27 14:03 43.35631 17.22637 37095 ft 479 kts 144°
2026-04-27 14:04 43.30232 17.28006 37100 ft 479 kts 144°
2026-04-27 14:04 43.24834 17.33363 37085 ft 478 kts 145°
2026-04-27 14:05 43.19441 17.38703 37097 ft 478 kts 145°
2026-04-27 14:05 43.14039 17.44038 37098 ft 478 kts 145°
2026-04-27 14:06 43.08659 17.49341 37094 ft 479 kts 145°
2026-04-27 14:06 43.03250 17.54662 37087 ft 479 kts 146°
2026-04-27 14:07 42.97854 17.59957 37092 ft 479 kts 146°
2026-04-27 14:07 42.92442 17.65256 37089 ft 479 kts 146°
2026-04-27 14:08 42.87022 17.70551 37088 ft 479 kts 146°
2026-04-27 14:08 42.81599 17.75838 37089 ft 479 kts 146°
2026-04-27 14:09 42.76176 17.81114 37098 ft 479 kts 146°
2026-04-27 14:09 42.70747 17.86382 37098 ft 479 kts 146°
2026-04-27 14:10 42.65313 17.91645 37102 ft 479 kts 146°
2026-04-27 14:10 42.59878 17.96897 37087 ft 479 kts 147°
2026-04-27 14:11 42.54597 18.01990 37101 ft 479 kts 147°
2026-04-27 14:11 42.49156 18.07225 37102 ft 480 kts 147°
2026-04-27 14:12 42.43709 18.12454 37102 ft 480 kts 147°
2026-04-27 14:12 42.38257 18.17677 37099 ft 480 kts 147°
2026-04-27 14:13 42.32801 18.22893 37089 ft 480 kts 147°
2026-04-27 14:13 42.27336 18.28106 37102 ft 480 kts 147°
2026-04-27 14:14 42.21870 18.33309 37103 ft 480 kts 147°
2026-04-27 14:14 42.16440 18.38467 37083 ft 480 kts 147°
2026-04-27 14:15 42.10974 18.43648 37079 ft 480 kts 147°
2026-04-27 14:15 42.05513 18.48815 37082 ft 480 kts 147°
2026-04-27 14:16 42.00046 18.53998 37090 ft 480 kts 146°
2026-04-27 14:16 41.94755 18.59448 37079 ft 481 kts 144°
2026-04-27 14:17 41.89492 18.65021 37079 ft 481 kts 144°
2026-04-27 14:17 41.84218 18.70538 37076 ft 480 kts 144°
2026-04-27 14:18 41.78932 18.76009 37089 ft 480 kts 144°
2026-04-27 14:18 41.73632 18.81472 37083 ft 480 kts 144°
2026-04-27 14:19 41.68340 18.86918 37075 ft 480 kts 144°
2026-04-27 14:19 41.63083 18.92319 37065 ft 480 kts 144°
2026-04-27 14:20 41.57791 18.97745 37074 ft 479 kts 144°
2026-04-27 14:20 41.52617 19.03040 37074 ft 479 kts 144°
2026-04-27 14:21 41.47311 19.08420 37073 ft 478 kts 148°
2026-04-27 14:21 41.41428 19.12332 37078 ft 471 kts 163°
2026-04-27 14:22 41.35296 19.15233 37070 ft 470 kts 163°
2026-04-27 14:22 41.29129 19.18158 37074 ft 470 kts 163°
2026-04-27 14:23 41.22975 19.21131 37070 ft 470 kts 163°
2026-04-27 14:23 41.16821 19.24123 37070 ft 470 kts 163°
2026-04-27 14:24 41.10675 19.27109 37071 ft 470 kts 163°
2026-04-27 14:24 41.04527 19.30087 37071 ft 471 kts 163°
2026-04-27 14:25 40.98391 19.33051 37071 ft 471 kts 163°
2026-04-27 14:25 40.92243 19.36015 37066 ft 470 kts 163°
2026-04-27 14:25 40.89159 19.37500 36951 ft 473 kts 163°
2026-04-27 14:26 40.86051 19.38993 36391 ft 476 kts 163°
2026-04-27 14:26 40.82993 19.40464 35813 ft 473 kts 163°
2026-04-27 14:26 40.79896 19.41951 35156 ft 474 kts 163°
2026-04-27 14:26 40.76795 19.43438 34506 ft 475 kts 163°
2026-04-27 14:27 40.73688 19.44927 33795 ft 476 kts 163°
2026-04-27 14:27 40.70569 19.46419 33015 ft 477 kts 162°
2026-04-27 14:27 40.67454 19.47909 32305 ft 476 kts 162°
2026-04-27 14:27 40.64328 19.49403 31549 ft 477 kts 162°
2026-04-27 14:28 40.61206 19.50893 30794 ft 478 kts 162°
2026-04-27 14:28 40.58074 19.52387 29998 ft 479 kts 162°
2026-04-27 14:28 40.54937 19.53879 29088 ft 480 kts 162°
2026-04-27 14:28 40.51797 19.55369 28218 ft 479 kts 162°
2026-04-27 14:29 40.48669 19.56851 27597 ft 474 kts 162°
2026-04-27 14:29 40.45580 19.58314 26954 ft 470 kts 162°
2026-04-27 14:29 40.42522 19.59761 26341 ft 465 kts 162°
2026-04-27 14:29 40.39485 19.61196 25730 ft 461 kts 162°
2026-04-27 14:30 40.36477 19.62618 25136 ft 457 kts 162°
2026-04-27 14:30 40.33491 19.64026 24542 ft 454 kts 162°
2026-04-27 14:30 40.30570 19.65403 23940 ft 451 kts 162°
2026-04-27 14:30 40.27622 19.66790 23256 ft 449 kts 162°
2026-04-27 14:31 40.24707 19.68162 22612 ft 445 kts 162°
2026-04-27 14:31 40.21817 19.69521 21996 ft 441 kts 162°
2026-04-27 14:31 40.18937 19.70874 21398 ft 436 kts 162°
2026-04-27 14:31 40.16090 19.72210 20809 ft 432 kts 162°
2026-04-27 14:32 40.13274 19.73530 20239 ft 428 kts 162°
2026-04-27 14:32 40.10477 19.74840 19659 ft 425 kts 161°
2026-04-27 14:32 40.07704 19.76138 19085 ft 421 kts 161°
2026-04-27 14:32 40.04986 19.77409 18518 ft 418 kts 162°
2026-04-27 14:33 40.02249 19.78687 17863 ft 416 kts 162°
2026-04-27 14:33 39.99553 19.79946 17242 ft 412 kts 162°
2026-04-27 14:33 39.96866 19.81201 16682 ft 407 kts 162°
2026-04-27 14:33 39.95102 19.82024 16311 ft 404 kts 162°
2026-04-27 14:34 39.91579 19.83665 15561 ft 399 kts 162°
2026-04-27 14:34 39.89856 19.84466 15196 ft 396 kts 162°
2026-04-27 14:34 39.87214 19.85325 14625 ft 390 kts 179°
2026-04-27 14:34 39.84603 19.84724 14289 ft 377 kts 206°
2026-04-27 14:35 39.82060 19.81881 13979 ft 367 kts 240°
2026-04-27 14:35 39.81224 19.78786 13450 ft 364 kts 264°
2026-04-27 14:35 39.80838 19.75503 12570 ft 370 kts 252°
2026-04-27 14:35 39.79912 19.72395 11981 ft 368 kts 249°
2026-04-27 14:36 39.79078 19.69262 11430 ft 365 kts 252°
2026-04-27 14:36 39.78365 19.66112 11129 ft 356 kts 253°
2026-04-27 14:36 39.77637 19.63098 10952 ft 344 kts 245°
2026-04-27 14:36 39.76381 19.60537 10895 ft 329 kts 232°
2026-04-27 14:37 39.75028 19.58202 10821 ft 319 kts 233°
2026-04-27 14:37 39.73750 19.55889 10740 ft 313 kts 235°
2026-04-27 14:37 39.72928 19.54353 10666 ft 312 kts 233°
2026-04-27 14:37 39.70671 19.52052 10508 ft 309 kts 202°
2026-04-27 14:38 39.68704 19.51136 10393 ft 300 kts 195°
2026-04-27 14:38 39.66698 19.50576 10264 ft 291 kts 188°
2026-04-27 14:38 39.64720 19.50263 10147 ft 282 kts 185°
2026-04-27 14:38 39.62788 19.50248 9963 ft 276 kts 166°
2026-04-27 14:39 39.61123 19.51378 9684 ft 272 kts 141°
2026-04-27 14:39 39.59659 19.52921 9353 ft 272 kts 141°
2026-04-27 14:39 39.58190 19.54460 9085 ft 270 kts 141°
2026-04-27 14:39 39.56734 19.55975 8782 ft 269 kts 141°
2026-04-27 14:40 39.55263 19.57495 8455 ft 270 kts 142°
2026-04-27 14:40 39.54289 19.58497 8281 ft 268 kts 142°
2026-04-27 14:40 39.52344 19.60490 7897 ft 264 kts 142°
2026-04-27 14:40 39.50907 19.61958 7452 ft 263 kts 142°
2026-04-27 14:41 39.49954 19.62930 7128 ft 264 kts 142°
2026-04-27 14:41 39.48044 19.64877 6700 ft 257 kts 143°
2026-04-27 14:41 39.46660 19.66286 6427 ft 249 kts 143°
2026-04-27 14:41 39.45322 19.67647 6188 ft 247 kts 143°
2026-04-27 14:42 39.43974 19.69017 5930 ft 246 kts 143°
2026-04-27 14:42 39.42632 19.70378 5682 ft 245 kts 143°
2026-04-27 14:42 39.41296 19.71734 5439 ft 244 kts 143°
2026-04-27 14:42 39.40121 19.73297 5152 ft 246 kts 118°
2026-04-27 14:43 39.39765 19.74719 4962 ft 247 kts 99°
2026-04-27 14:43 39.39715 19.77663 4616 ft 248 kts 90°
2026-04-27 14:43 39.39774 19.79870 4470 ft 243 kts 89°
2026-04-27 14:43 39.39809 19.81329 4385 ft 239 kts 91°
2026-04-27 14:44 39.39850 19.83456 4259 ft 235 kts 91°
2026-04-27 14:44 39.39894 19.86249 4130 ft 235 kts 91°
2026-04-27 14:44 39.39935 19.87652 4062 ft 237 kts 86°
2026-04-27 14:44 39.40525 19.90439 3654 ft 249 kts 75°
2026-04-27 14:45 39.40871 19.91865 3486 ft 249 kts 75°
2026-04-27 14:45 39.41372 19.93979 3348 ft 243 kts 73°
2026-04-27 14:45 39.42253 19.95774 3262 ft 238 kts 38°
2026-04-27 14:45 39.43766 19.96497 3114 ft 234 kts
2026-04-27 14:46 39.45364 19.96430 2824 ft 226 kts 353°
2026-04-27 14:46 39.46874 19.96077 2549 ft 214 kts 345°
2026-04-27 14:46 39.48278 19.95585 2271 ft 203 kts 343°
2026-04-27 14:46 39.49598 19.95090 2005 ft 191 kts 343°
2026-04-27 14:47 39.50835 19.94624 1740 ft 180 kts 343°
2026-04-27 14:47 39.51979 19.94195 1528 ft 163 kts 343°
2026-04-27 14:47 39.53023 19.93802 1300 ft 153 kts 342°
2026-04-27 14:47 39.54042 19.93399 1079 ft 153 kts 340°
2026-04-27 14:48 39.55053 19.92988 854 ft 152 kts 340°
2026-04-27 14:48 39.57025 19.92074 448 ft 149 kts 342°
2026-04-27 14:48 39.58024 19.91771 263 ft 146 kts 349°
2026-04-27 14:49 39.59019 19.91515 87 ft 145 kts 349°
2026-04-27 14:49 39.59989 19.91269 15 ft 129 kts 349°
2026-04-27 14:49 39.60655 19.91096 11 ft 67 kts 348°
2026-04-27 14:49 39.60925 19.91025 13 ft 24 kts 348°
2026-04-27 14:50 39.61025 19.91029 13 ft 15 kts 44°
2026-04-27 14:50 39.61057 19.91111 16 ft 7 kts 105°
2026-04-27 14:50 39.61009 19.91135 18 ft 9 kts 167°
2026-04-27 14:50 39.60950 19.91151 16 ft 9 kts 170°
2026-04-27 14:51 39.60885 19.91166 17 ft 11 kts 169°
2026-04-27 14:51 39.60802 19.91187 16 ft 13 kts 169°
2026-04-27 14:51 39.60711 19.91209 16 ft 13 kts 168°
2026-04-27 14:51 39.60658 19.91227 17 ft 7 kts 144°
2026-04-27 14:52 39.60657 19.91285 17 ft 7 kts 77°
2026-04-27 14:52 39.60665 19.91332 17 ft 5 kts 77°
2026-04-27 14:52 39.60669 19.91356 20 ft 1 kts 78°
2026-04-27 14:52 39.60669 19.91358 19 ft 0 kts 78°